TimeEDT,TemperatureF,Dew PointF,Humidity,Sea Level PressureIn,VisibilityMPH,Wind Direction,Wind SpeedMPH,Gust SpeedMPH,PrecipitationIn,Events,Conditions,WindDirDegrees,DateUTC
12:51 AM,39.0,37.0,93,29.83,10.0,WSW,6.9,-,N/A,,Overcast,240,2012-11-01 04:51:00
1:51 AM,39.0,36.0,89,29.83,10.0,WSW,6.9,-,N/A,,Overcast,250,2012-11-01 05:51:00
2:51 AM,39.0,36.0,89,29.83,10.0,SW,8.1,-,0.00,,Overcast,230,2012-11-01 06:51:00
3:35 AM,39.2,35.6,87,29.82,10.0,Variable,6.9,-,N/A,,Overcast,0,2012-11-01 07:35:00
3:51 AM,39.0,36.0,89,29.82,10.0,WSW,6.9,-,N/A,,Overcast,240,2012-11-01 07:51:00
4:51 AM,39.0,35.1,86,29.82,10.0,SW,6.9,-,0.00,,Overcast,230,2012-11-01 08:51:00
5:00 AM,39.2,35.6,87,29.81,10.0,WSW,5.8,-,N/A,,Overcast,250,2012-11-01 09:00:00
5:10 AM,39.2,35.6,87,29.81,10.0,WSW,6.9,-,N/A,,Overcast,250,2012-11-01 09:10:00
5:25 AM,39.2,35.6,87,29.81,10.0,WSW,5.8,-,N/A,,Overcast,240,2012-11-01 09:25:00
5:51 AM,39.0,35.1,86,29.83,10.0,WSW,6.9,-,N/A,,Overcast,250,2012-11-01 09:51:00
6:51 AM,39.9,35.1,83,29.83,10.0,WSW,8.1,-,N/A,,Overcast,240,2012-11-01 10:51:00
7:17 AM,39.2,35.6,87,29.83,10.0,WSW,8.1,-,N/A,,Overcast,240,2012-11-01 11:17:00
7:46 AM,39.2,35.6,87,29.84,10.0,WSW,8.1,-,0.00,Rain,Light Rain,240,2012-11-01 11:46:00
7:51 AM,39.9,36.0,86,29.85,6.0,WSW,6.9,-,0.00,Rain,Light Rain,240,2012-11-01 11:51:00
8:01 AM,39.2,35.6,87,29.84,6.0,SW,5.8,-,0.00,Rain,Light Rain,230,2012-11-01 12:01:00
8:48 AM,39.2,35.6,87,29.85,6.0,WSW,5.8,-,0.00,Rain,Light Rain,240,2012-11-01 12:48:00
8:51 AM,39.9,36.0,86,29.86,6.0,SW,5.8,-,0.00,,Overcast,230,2012-11-01 12:51:00
9:51 AM,39.9,36.0,86,29.87,6.0,WSW,8.1,-,0.00,,Overcast,240,2012-11-01 13:51:00
10:51 AM,43.0,36.0,76,29.87,10.0,WSW,5.8,-,N/A,,Overcast,240,2012-11-01 14:51:00
11:51 AM,48.0,37.0,66,29.86,10.0,WSW,11.5,18.4,N/A,,Mostly Cloudy,240,2012-11-01 15:51:00
12:51 PM,46.9,34.0,61,29.85,10.0,West,9.2,-,N/A,,Mostly Cloudy,270,2012-11-01 16:51:00
1:51 PM,50.0,34.0,54,29.83,10.0,West,9.2,19.6,N/A,,Mostly Cloudy,260,2012-11-01 17:51:00
2:51 PM,52.0,32.0,47,29.81,10.0,SW,10.4,18.4,N/A,,Scattered Clouds,230,2012-11-01 18:51:00
3:51 PM,53.1,28.9,40,29.81,10.0,WSW,11.5,18.4,N/A,,Clear,250,2012-11-01 19:51:00
4:51 PM,53.1,30.0,41,29.81,10.0,WSW,10.4,17.3,N/A,,Mostly Cloudy,240,2012-11-01 20:51:00
5:51 PM,51.1,26.1,38,29.82,10.0,West,9.2,-,N/A,,Overcast,270,2012-11-01 21:51:00
6:51 PM,50.0,21.9,33,29.84,10.0,West,8.1,16.1,N/A,,Overcast,260,2012-11-01 22:51:00
7:51 PM,48.0,21.0,34,29.86,10.0,WSW,6.9,-,N/A,,Mostly Cloudy,240,2012-11-01 23:51:00
8:51 PM,46.0,21.9,39,29.87,10.0,SW,5.8,-,N/A,,Mostly Cloudy,230,2012-11-02 00:51:00
9:51 PM,45.0,23.0,42,29.87,10.0,SW,4.6,-,N/A,,Mostly Cloudy,220,2012-11-02 01:51:00
10:51 PM,45.0,23.0,42,29.87,10.0,SSW,3.5,-,N/A,,Overcast,210,2012-11-02 02:51:00
11:51 PM,45.0,24.1,44,29.87,10.0,Calm,Calm,-,N/A,,Overcast,0,2012-11-02 03:51:00